Location: Seattle
(47.6064°N, 122.3308°W)
Time: 01:24:32
(UTC-08:00)

Tiros 1 - Pass Details

Date: 29 November 2020
Orbit: 630 x 663 km, 48.4° (Epoch: 28 January)

Event Time Altitude Azimuth Distance (km) Brightness Sun altitude
Rises 16:58:49 0° 258° (WSW) 2,991 12.5 -6.5°
Reaches altitude 10° 17:01:10 10° 259° (W) 2,078 11.3 -6.8°
Maximum altitude 17:05:59 89° 343° (NNW) 665 7.2 -7.6°
Drops below altitude 10° 17:10:47 10° 80° (E) 2,067 9.1 -8.3°
Enters shadow 17:10:50 10° 80° (E) 2,089 9.1 -8.3°
Sets 17:13:07 0° 80° (E) 2,974 - -8.7°
